Home   Weather   Warminster Township   Past weeks

Flag for USA Past Weather in Warminster Township, Pennsylvania, USA — Yesterday and Last 2 Weeks

Now
68 °F

Low clouds.


Feels Like: 68 °F
Forecast: 69 / 82 °F
Wind: No wind

Location: Wings Field Airport

Current Time: Jul 28, 2017 at 7:08:42 am

Latest Report: Jul 28, 2017 at 6:35 am


Visibility: 0 mi

Pressure: 29.88 "Hg

Humidity: 100%

Dew Point: 68 °F

Location of Warminster TownshipLocation

Past Weather in Warminster Township — Graph

°F

Warminster Township Temperature Yesterday

Maximum temperature yesterday: 77 °F (at 4:15 pm)
Minimum temperature yesterday: 61 °F (at 4:35 am)
Average temperature yesterday: 70 °F

High & Low Weather Summary for the Past Weeks

 TemperatureHumidityPressure
High90 °F (Jul 13, 11:55 am)100% (Jul 13, 5:35 am)30.28 "Hg (Jul 13, 5:35 am)
Low61 °F (Jul 16, 3:35 am)51% (Jul 15, 2:55 pm)29.74 "Hg (Jul 24, 5:55 am)
Average74 °F84%29.99 "Hg
* Reported Jul 13 5:15 am — Jul 28 5:55 am, Warminster Township. Weather by CustomWeather, © 2017

Note: Actual official high and low records may vary slightly from our data, if they occured in-between our weather recording intervals... More about our weather records

Advertising

Warminster Township Weather History for the Previous 24 Hours

Scroll right to see more
 ConditionsComfort  
Time TempWeatherWind HumidityBarometerVisibility
5:55 am
Fri, Jul 28
68 °FLow clouds.No wind100%29.87 "Hg2 mi
5:35 am68 °FLow clouds.No wind100%29.87 "Hg2 mi
5:15 am68 °FLow clouds.No wind100%29.87 "Hg4 mi
4:55 am68 °FLow clouds.No wind100%29.87 "Hg5 mi
4:35 am68 °FLow clouds.No wind100%29.86 "Hg3 mi
4:15 am68 °FLow clouds.No wind100%29.86 "Hg3 mi
3:55 am68 °FLow clouds.No wind100%29.86 "Hg3 mi
3:35 am68 °FLow clouds.No wind100%29.86 "Hg3 mi
2:55 am66 °FPassing clouds.No wind100%29.86 "Hg2 mi
2:30 am64 °FPassing clouds.No wind100%29.87 "Hg0 mi
2:10 am64 °FPassing clouds.No wind100%29.87 "Hg1 mi
1:55 am66 °FPassing clouds.No wind100%29.87 "Hg1 mi
1:35 am68 °FLow clouds.No wind100%29.88 "Hg1 mi
1:15 am68 °FLow clouds.No wind100%29.88 "Hg1 mi
12:55 am68 °FMostly cloudy.No wind100%29.88 "Hg3 mi
12:15 am68 °FPassing clouds.No wind100%29.89 "Hg3 mi
11:55 pm
Thu, Jul 27
68 °FClear.No wind100%29.89 "Hg3 mi
11:35 pm70 °FPassing clouds.No wind100%29.89 "Hg5 mi
11:15 pm70 °FPartly cloudy.No wind100%29.89 "Hg10 mi
10:55 pm72 °FMostly cloudy.No wind100%29.90 "Hg7 mi
10:35 pm72 °FMostly cloudy.No wind100%29.90 "Hg10 mi
10:15 pm72 °FMostly cloudy.No wind100%29.91 "Hg10 mi
9:55 pm73 °FMostly cloudy.No wind89%29.91 "Hg10 mi
9:35 pm73 °FMostly cloudy.3 mph94%29.90 "Hg10 mi
9:15 pm73 °FMostly cloudy.No wind94%29.90 "Hg10 mi
8:55 pm72 °FPassing clouds.No wind100%29.90 "Hg10 mi
8:15 pm73 °FPartly sunny.No wind94%29.90 "Hg10 mi
7:55 pm73 °FBroken clouds.No wind94%29.90 "Hg10 mi
7:35 pm75 °FCloudy.No wind89%29.90 "Hg10 mi
7:15 pm75 °FBroken clouds.No wind89%29.90 "Hg10 mi
6:55 pm75 °FScattered clouds.No wind89%29.91 "Hg10 mi
6:35 pm77 °FBroken clouds.No wind79%29.91 "Hg10 mi
6:15 pm77 °FScattered clouds.No wind79%29.91 "Hg10 mi
5:55 pm77 °FBroken clouds.No wind83%29.91 "Hg10 mi
5:35 pm77 °FBroken clouds.No wind79%29.91 "Hg10 mi
5:15 pm77 °FBroken clouds.3 mph79%29.92 "Hg10 mi
4:55 pm77 °FBroken clouds.No wind79%29.92 "Hg10 mi
4:35 pm77 °FMostly cloudy.No wind79%29.93 "Hg10 mi
4:15 pm77 °FMostly cloudy.No wind79%29.93 "Hg10 mi
3:55 pm75 °FMostly cloudy.No wind83%29.94 "Hg10 mi
3:35 pm75 °FOvercast.No wind83%29.94 "Hg10 mi
3:15 pm73 °FMostly cloudy.3 mph89%29.95 "Hg10 mi
2:55 pm73 °FMostly cloudy.3 mph89%29.95 "Hg10 mi
2:35 pm73 °FMostly cloudy.No wind89%29.96 "Hg10 mi
1:55 pm75 °FMostly cloudy.5 mph83%29.96 "Hg10 mi
1:35 pm73 °FOvercast.6 mph89%29.97 "Hg10 mi
1:15 pm73 °FOvercast.5 mph83%29.98 "Hg10 mi
12:55 pm73 °FOvercast.6 mph83%29.99 "Hg10 mi
12:35 pm73 °FOvercast.No wind83%29.99 "Hg10 mi
12:15 pm73 °FOvercast.3 mph83%30.00 "Hg10 mi
11:55 am73 °FOvercast.No wind83%30.00 "Hg10 mi
11:35 am73 °FOvercast.3 mph83%30.01 "Hg10 mi
11:15 am73 °FOvercast.5 mph83%30.02 "Hg10 mi
10:55 am72 °FOvercast.No wind88%30.03 "Hg10 mi
10:35 am72 °FOvercast.No wind88%30.03 "Hg10 mi
10:15 am72 °FMostly cloudy.No wind88%30.03 "Hg10 mi
9:55 am72 °FPartly sunny.5 mph88%30.04 "Hg10 mi
9:35 am72 °FBroken clouds.5 mph88%30.04 "Hg10 mi
8:55 am70 °FOvercast.3 mph83%30.06 "Hg10 mi
8:35 am68 °FOvercast.No wind88%30.06 "Hg10 mi
7:55 am66 °FMostly cloudy.No wind88%30.07 "Hg10 mi
7:35 am64 °FOvercast.No wind100%30.07 "Hg10 mi
7:15 am64 °FMostly cloudy.No wind94%30.07 "Hg10 mi
Weather by CustomWeather, © 2017

See weather overviewHow to use our weather pages